This is the latest recevied weather packets stored in our database for station/object VK5GR-12. If no packets are shown the sender has not sent any weather packets the latest 10 day(s).
| Time | Temp. | Humidity | Pressure | Rain* | Wind** | Luminosity | Snow |
|---|---|---|---|---|---|---|---|
| 1777751546 | 11.67° C | 94% | 1010.2 hPa | 0 mm | - | 0 W/m² | - |
| 1777750646 | 11.67° C | 94% | 1010.3 hPa | 0 mm | - | 0 W/m² | - |
| 1777749747 | 11.67° C | 94% | 1010.3 hPa | 0 mm | - | 0 W/m² | - |
| 1777748843 | 11.67° C | 94% | 1010.2 hPa | 0 mm | - | 0 W/m² | - |
| 1777747943 | 11.67° C | 95% | 1010.1 hPa | 0 mm | - | 0 W/m² | - |
| 1777747038 | 11.67° C | 94% | 1010.2 hPa | 0 mm | - | 0 W/m² | - |
| 1777746137 | 11.67° C | 93% | 1010.1 hPa | 6.1 mm | - | 0 W/m² | - |
| 1777745236 | 12.22° C | 93% | 1010 hPa | 7.11 mm | - | 0 W/m² | - |
| 1777744334 | 12.22° C | 92% | 1009.9 hPa | 1.78 mm | - | 0 W/m² | - |
| 1777743431 | 12.22° C | 91% | 1010 hPa | 0 mm | - | 0 W/m² | - |
| 1777742528 | 12.22° C | 90% | 1010 hPa | 0 mm | - | 0 W/m² | - |
| 1777741624 | 12.78° C | 87% | 1010.1 hPa | 1.27 mm | - | 0 W/m² | - |
| 1777740721 | 12.78° C | 85% | 1010 hPa | 0 mm | - | 0 W/m² | - |
| 1777739815 | 12.78° C | 84% | 1010.2 hPa | 0 mm | - | 0 W/m² | - |
| 1777738912 | 12.78° C | 85% | 1010.5 hPa | 0 mm | - | 0 W/m² | - |
| 1777738010 | 12.78° C | 85% | 1010.6 hPa | 0 mm | - | 0 W/m² | - |
| 1777737110 | 12.78° C | 85% | 1010.4 hPa | 0 mm | - | 0 W/m² | - |
| 1777736206 | 12.78° C | 85% | 1010.6 hPa | 0 mm | - | 0 W/m² | - |
| 1777735303 | 12.78° C | 86% | 1010.7 hPa | 0 mm | - | 0 W/m² | - |
| 1777734401 | 12.78° C | 87% | 1010.8 hPa | 0 mm | - | 0 W/m² | - |
| 1777733496 | 12.78° C | 87% | 1010.7 hPa | 0 mm | - | 0 W/m² | - |
| 1777732591 | 13.33° C | 88% | 1010.9 hPa | 0 mm | - | 0 W/m² | - |
| 1777731688 | 13.33° C | 89% | 1010.9 hPa | 0 mm | - | 0 W/m² | - |
| 1777730788 | 13.33° C | 91% | 1011.1 hPa | 0 mm | - | 0 W/m² | - |
| 1777729882 | 13.33° C | 91% | 1011.1 hPa | 0 mm | - | 0 W/m² | - |
* Rain latest hour (hover to see other rain measurements)
** Current wind speed in m/s (hover to see current wind gust speed)